EN

Hourly Weather Trudovoy

Today, 17 April, Saturday

Time Temperature Precipitation Wind Pressure Humidity
00:00 -7°C° 0 mm 4 mps 758 mmHg 82%
01:00 -7°C° 0 mm 3 mps 758 mmHg 81%
02:00 -8°C° 0 mm 3 mps 759 mmHg 81%
03:00 -8°C° 0 mm 3 mps 759 mmHg 81%
04:00 -9°C° 0 mm 3 mps 760 mmHg 80%
05:00 -8°C° 0 mm 2 mps 760 mmHg 79%
06:00 -9°C° 0 mm 2 mps 761 mmHg 82%
07:00 -7°C° 0 mm 1 mps 761 mmHg 74%
08:00 -6°C° 0 mm 1 mps 761 mmHg 67%
09:00 -4°C° 0 mm 1 mps 761 mmHg 59%
10:00 -2°C° 0 mm 1 mps 761 mmHg 54%
11:00 -3°C° 0 mm 2 mps 761 mmHg 49%
12:00 -2°C° 0 mm 2 mps 761 mmHg 44%
13:00 -1°C° 0 mm 2 mps 760 mmHg 43%
14:00 0°C° 0 mm 3 mps 760 mmHg 41%
15:00 +1°C° 0 mm 3 mps 759 mmHg 40%
16:00 +1°C° 0 mm 3 mps 759 mmHg 44%
17:00 -1°C° 0 mm 4 mps 759 mmHg 48%
18:00 -1°C° 0 mm 4 mps 758 mmHg 53%
19:00 -2°C° 0 mm 4 mps 758 mmHg 58%
20:00 -3°C° 0 mm 4 mps 757 mmHg 64%
21:00 -4°C° 0 mm 4 mps 757 mmHg 70%
22:00 -5°C° 0 mm 5 mps 756 mmHg 70%
23:00 -5°C° 0 mm 5 mps 755 mmHg 71%

Tomorrow, 18 April, Sunday

Time Temperature Precipitation Wind Pressure Humidity
00:00 -5°C° 0 mm 5 mps 754 mmHg 71%
01:00 -5°C° 0.1 mm 5 mps 753 mmHg 75%
02:00 -5°C° 0.1 mm 6 mps 752 mmHg 79%
03:00 -5°C° 0.1 mm 6 mps 751 mmHg 82%
04:00 -4°C° 0.3 mm 6 mps 750 mmHg 85%
05:00 -4°C° 0.3 mm 6 mps 750 mmHg 87%
06:00 -4°C° 0.3 mm 6 mps 749 mmHg 89%
07:00 -2°C° 0.2 mm 5 mps 749 mmHg 83%
08:00 -2°C° 0.2 mm 5 mps 750 mmHg 77%
09:00 -1°C° 0.2 mm 4 mps 750 mmHg 71%
10:00 0°C° 0 mm 3 mps 750 mmHg 66%
11:00 +1°C° 0 mm 3 mps 750 mmHg 60%
12:00 +2°C° 0 mm 2 mps 750 mmHg 54%
13:00 +2°C° 0 mm 2 mps 750 mmHg 56%
14:00 +2°C° 0 mm 2 mps 749 mmHg 58%
15:00 +1°C° 0 mm 3 mps 749 mmHg 60%
16:00 -2°C° 0.7 mm 4 mps 748 mmHg 70%
17:00 -4°C° 0.7 mm 5 mps 747 mmHg 80%
18:00 -6°C° 0.7 mm 6 mps 747 mmHg 91%
19:00 -8°C° 2.1 mm 6 mps 747 mmHg 91%
20:00 -9°C° 2.1 mm 6 mps 746 mmHg 92%
21:00 -10°C° 2.1 mm 6 mps 746 mmHg 93%
22:00 -11°C° 1 mm 7 mps 747 mmHg 92%
23:00 -12°C° 1 mm 7 mps 747 mmHg 91%

Day after tomorrow, 19 April, Monday

Time Temperature Precipitation Wind Pressure Humidity
00:00 -13°C° 1 mm 7 mps 747 mmHg 91%
01:00 -13°C° 0.2 mm 7 mps 748 mmHg 87%
02:00 -14°C° 0.2 mm 7 mps 749 mmHg 84%
03:00 -15°C° 0.2 mm 7 mps 749 mmHg 81%
04:00 -15°C° 0 mm 6 mps 751 mmHg 79%
05:00 -16°C° 0 mm 6 mps 752 mmHg 78%
06:00 -16°C° 0 mm 6 mps 753 mmHg 76%
07:00 -16°C° 0 mm 6 mps 754 mmHg 74%
08:00 -16°C° 0 mm 6 mps 754 mmHg 71%
09:00 -15°C° 0 mm 6 mps 755 mmHg 68%
10:00 -14°C° 0 mm 6 mps 756 mmHg 64%
11:00 -14°C° 0 mm 6 mps 756 mmHg 61%
12:00 -12°C° 0 mm 6 mps 757 mmHg 57%
13:00 -11°C° 0 mm 5 mps 757 mmHg 55%
14:00 -10°C° 0 mm 5 mps 758 mmHg 53%
15:00 -10°C° 0 mm 5 mps 758 mmHg 51%
16:00 -10°C° 0 mm 5 mps 758 mmHg 56%
17:00 -10°C° 0 mm 5 mps 759 mmHg 61%
18:00 -10°C° 0 mm 5 mps 759 mmHg 65%
19:00 -10°C° 0 mm 4 mps 759 mmHg 71%
20:00 -11°C° 0 mm 4 mps 760 mmHg 76%
21:00 -11°C° 0 mm 4 mps 760 mmHg 81%
22:00 -11°C° 0 mm 4 mps 760 mmHg 81%
23:00 -11°C° 0 mm 4 mps 760 mmHg 81%

20 April, Tuesday

Time Temperature Precipitation Wind Pressure Humidity
00:00 -11°C° 0 mm 4 mps 760 mmHg 81%
01:00 -12°C° 0 mm 4 mps 760 mmHg 82%
02:00 -12°C° 0 mm 4 mps 761 mmHg 82%
03:00 -12°C° 0 mm 4 mps 761 mmHg 83%
04:00 -14°C° 0 mm 4 mps 761 mmHg 84%
05:00 -13°C° 0 mm 3 mps 761 mmHg 86%
06:00 -13°C° 0 mm 3 mps 762 mmHg 87%
07:00 -12°C° 0 mm 3 mps 762 mmHg 81%
08:00 -10°C° 0 mm 3 mps 762 mmHg 74%
09:00 -9°C° 0 mm 3 mps 762 mmHg 67%
10:00 -8°C° 0 mm 3 mps 761 mmHg 63%
11:00 -6°C° 0 mm 3 mps 761 mmHg 59%
12:00 -5°C° 0 mm 3 mps 761 mmHg 54%
13:00 -5°C° 0 mm 3 mps 760 mmHg 53%
14:00 -4°C° 0 mm 4 mps 760 mmHg 51%
15:00 -3°C° 0 mm 4 mps 759 mmHg 50%
16:00 -4°C° 0 mm 4 mps 759 mmHg 56%
17:00 -4°C° 0 mm 4 mps 759 mmHg 61%
18:00 -4°C° 0 mm 3 mps 758 mmHg 67%
19:00 -5°C° 0 mm 3 mps 758 mmHg 74%
20:00 -6°C° 0 mm 3 mps 758 mmHg 82%
21:00 -7°C° 0 mm 3 mps 757 mmHg 89%
22:00 -7°C° 0.1 mm 3 mps 757 mmHg 90%
23:00 -7°C° 0.1 mm 3 mps 756 mmHg 92%

21 April, Wednesday

Time Temperature Precipitation Wind Pressure Humidity
00:00 -7°C° 0.1 mm 3 mps 756 mmHg 93%
01:00 -7°C° 0.2 mm 3 mps 755 mmHg 93%
02:00 -7°C° 0.2 mm 3 mps 755 mmHg 94%
03:00 -7°C° 0.2 mm 3 mps 755 mmHg 94%
04:00 -7°C° 0.1 mm 3 mps 755 mmHg 94%
05:00 -7°C° 0.1 mm 3 mps 756 mmHg 93%
06:00 -7°C° 0.1 mm 3 mps 756 mmHg 93%
07:00 -6°C° 0.1 mm 3 mps 757 mmHg 89%
08:00 -5°C° 0.1 mm 3 mps 757 mmHg 85%
09:00 -4°C° 0.1 mm 3 mps 758 mmHg 81%
10:00 -4°C° 0.1 mm 3 mps 758 mmHg 79%
11:00 -2°C° 0.1 mm 3 mps 759 mmHg 76%
12:00 -1°C° 0.1 mm 3 mps 760 mmHg 74%
13:00 -2°C° 0.2 mm 4 mps 760 mmHg 71%
14:00 -2°C° 0.2 mm 4 mps 761 mmHg 68%
15:00 -1°C° 0.2 mm 4 mps 762 mmHg 65%
16:00 -1°C° 0.1 mm 4 mps 762 mmHg 66%
17:00 -1°C° 0.1 mm 4 mps 763 mmHg 67%
18:00 -2°C° 0.1 mm 4 mps 764 mmHg 68%
19:00 -2°C° 0 mm 3 mps 765 mmHg 74%
20:00 -4°C° 0 mm 3 mps 766 mmHg 80%
21:00 -4°C° 0 mm 2 mps 766 mmHg 86%
22:00 -5°C° 0 mm 2 mps 767 mmHg 87%
23:00 -5°C° 0 mm 2 mps 768 mmHg 89%

22 April, Thursday

Time Temperature Precipitation Wind Pressure Humidity
00:00 -6°C° 0 mm 2 mps 768 mmHg 90%
01:00 -6°C° 0 mm 2 mps 769 mmHg 91%
02:00 -7°C° 0 mm 2 mps 769 mmHg 92%
03:00 -7°C° 0 mm 2 mps 770 mmHg 93%
04:00 -7°C° 0 mm 2 mps 771 mmHg 92%
05:00 -7°C° 0 mm 2 mps 771 mmHg 91%
06:00 -7°C° 0 mm 2 mps 772 mmHg 91%
07:00 -5°C° 0 mm 2 mps 772 mmHg 83%
08:00 -3°C° 0 mm 2 mps 773 mmHg 75%
09:00 -1°C° 0 mm 3 mps 773 mmHg 68%
10:00 0°C° 0 mm 3 mps 774 mmHg 63%
11:00 0°C° 0 mm 3 mps 774 mmHg 58%
12:00 +1°C° 0 mm 3 mps 774 mmHg 53%
13:00 +2°C° 0 mm 3 mps 774 mmHg 52%
14:00 +2°C° 0 mm 3 mps 774 mmHg 51%
15:00 +2°C° 0 mm 3 mps 774 mmHg 50%
16:00 +2°C° 0 mm 3 mps 775 mmHg 53%
17:00 +2°C° 0 mm 3 mps 775 mmHg 57%
18:00 +1°C° 0 mm 3 mps 775 mmHg 60%
19:00 -1°C° 0 mm 2 mps 776 mmHg 69%
20:00 -1°C° 0 mm 1 mps 776 mmHg 79%
21:00 -2°C° 0 mm 1 mps 777 mmHg 88%
22:00 -3°C° 0 mm 1 mps 777 mmHg 89%
23:00 -3°C° 0 mm 1 mps 777 mmHg 90%
Show more

We Need Your Consent

Meteoprog and our Service Providers may store and access personal data such as cookies, device identifiers or other similar technologies on your device and process such data to personalise content and ads, as well as provide social media features and to analyse the traffic.

  • Store and/or access information on your device

    Cookies, device identifiers or other information can be stored or accessed on your device for the purposes indicated above.

  • Personalised ads and content, ad and content measurement, audience insights, and products development

    Ads and content can be personalised based on a profile. More data can be added to better personalise ads and content. Ad and content performance can be measured. Insights about the audience who saw the ads and content can be derived. Such data can be used to develop or improve user’s experience, systems and software.

By clicking ‘I Agree’ you will allow the use of indicated cookies, device identifiers, web beacons or other similar technologies. Your settings can be changed in the browser on your device.

For certain purposes, legitimate interests may be relied on, rather than consent. You can read more about this in our Privacy and Cookie Policy.